Weather History for KNYL - December, 2011

Change the Weather History Date:

Monday, December 26, 2011

  Actual Average Record
Temperature  
Mean Temperature 56 °F 57 °F  
Max Temperature 68 °F 67 °F 80 °F (1980)
Min Temperature 43 °F 46 °F 22 °F (1911)
Degree Days  
Heating Degree Days 9 8  
Month to date heating degree days 290 192  
Since 1 July heating degree days 342 260  
Growing Degree Days 5 (Base 50)    
Moisture  
Dew Point 24 °F    
Average Humidity 31    
Maximum Humidity 43    
Minimum Humidity 19    
Precipitation  
Precipitation 0.00 in 0.01 in 0.86 in (1927)
Month to date precipitation 1.15 0.42  
Year to date precipitation 2.99 3.47  
Sea Level Pressure  
Sea Level Pressure 30.24 in    
Wind  
Wind Speed 7 mph (NNE)    
Max Wind Speed 14 mph    
Max Gust Speed 17 mph    
Visibility 10 miles    
Events      
T = Trace of Precipitation, MM = Missing Value Source: NWS Daily Summary

Daily Weather History Graph

Daily Weather History Graph

Search for Another Location

Airport or City:

Trip Planner

Search our weather history database for the weather conditions in past years. The results will help you decide how hot, cold, wet, or windy it might be!

Date:

Astronomy

Dec. 26, 2011 Rise Set
Actual Time 7:38 AM MST 5:39 PM MST
Civil Twilight 7:11 AM MST 6:06 PM MST
Nautical Twilight 6:40 AM MST 6:37 PM MST
Astronomical Twilight 6:10 AM MST 7:07 PM MST
Moon 9:07 AM MST (12/26) 8:04 PM MST (12/26)
Length of Visible Light 10h 55m
Length of Day
10h 00m
Waxing Crescent, 5% of the Moon is Illuminated
Dec 26
Waxing Crescent
Dec 31
First Quarter
Jan 9
Full
Jan 16
Last Quarter
Jan 23
New

Hourly Weather History & Observations

Time (MST) Temp. Windchill Dew Point Humidity Pressure Visibility Wind Dir Wind Speed Gust Speed Precip Events Conditions
12:55 AM 46.9 °F - 21.9 °F 37% 30.22 in 10.0 mi NNE 4.6 mph - N/A   Clear
1:55 AM 46.9 °F - 19.9 °F 34% 30.22 in 10.0 mi NNE 8.1 mph - N/A   Clear
2:55 AM 46.9 °F - 19.9 °F 34% 30.23 in 10.0 mi NNE 9.2 mph - N/A   Clear
3:55 AM 46.9 °F - 21.0 °F 36% 30.23 in 10.0 mi NNE 6.9 mph - N/A   Clear
4:55 AM 46.9 °F - 21.0 °F 36% 30.23 in 10.0 mi NNE 10.4 mph - N/A   Clear
5:26 AM - - - N/A% - - North - - N/A   Unknown
5:55 AM 44.1 °F 42.5 °F 23.0 °F 43% 30.24 in 10.0 mi NE 3.5 mph - N/A   Clear
6:55 AM 44.1 °F 39.5 °F 21.9 °F 42% 30.25 in 10.0 mi NNE 8.1 mph - N/A   Clear
7:55 AM 45.0 °F 40.1 °F 21.9 °F 40% 30.26 in 10.0 mi NNE 9.2 mph - N/A   Clear
8:55 AM 48.0 °F - 23.0 °F 37% 30.27 in 10.0 mi NNE 10.4 mph - N/A   Clear
9:00 AM - - - N/A% - - North - - N/A   Unknown
9:55 AM 52.0 °F - 25.0 °F 35% 30.29 in 10.0 mi North 9.2 mph - N/A   Clear
10:55 AM 59.0 °F - 25.0 °F 27% 30.29 in 10.0 mi NNE 6.9 mph - N/A   Clear
11:55 AM 64.0 °F - 26.1 °F 24% 30.27 in 10.0 mi North 8.1 mph - N/A   Clear
12:55 PM 66.0 °F - 26.1 °F 22% 30.25 in 10.0 mi North 11.5 mph - N/A   Clear
1:55 PM 66.0 °F - 25.0 °F 21% 30.22 in 10.0 mi NNE 9.2 mph - N/A   Clear
2:55 PM 66.0 °F - 24.1 °F 20% 30.21 in 10.0 mi NNE 8.1 mph - N/A   Clear
3:55 PM 66.9 °F - 24.1 °F 20% 30.21 in 10.0 mi NNE 9.2 mph - N/A   Clear
4:55 PM 66.0 °F - 26.1 °F 22% 30.21 in 10.0 mi NNE 6.9 mph - N/A   Clear
5:55 PM 61.0 °F - 28.0 °F 29% 30.21 in 10.0 mi North 4.6 mph - N/A   Clear
6:55 PM 57.0 °F - 27.0 °F 32% 30.22 in 10.0 mi North 5.8 mph - N/A   Clear
7:55 PM 55.0 °F - 24.1 °F 30% 30.22 in 10.0 mi NNE 4.6 mph - N/A   Clear
8:55 PM 53.1 °F - 26.1 °F 35% 30.22 in 10.0 mi North 5.8 mph - N/A   Clear
9:00 PM - - - N/A% - - North - - N/A   Unknown
9:55 PM 51.1 °F - 24.1 °F 35% 30.25 in 10.0 mi North 3.5 mph - N/A   Clear
10:55 PM 48.0 °F - 25.0 °F 41% 30.25 in 10.0 mi North 5.8 mph - N/A   Clear
11:55 PM 48.9 °F - 23.0 °F 36% 30.25 in 10.0 mi Calm Calm - N/A   Clear